| time (UTC) | temp F | wind direction | speed knots | gust knots | rain 1hr in | rain 24hr in | rain mn in | humidity % | barometer mb |
| 20260504030508 | 49 | 238 | 5.2 | 8.7 | 0.00 | 0.00 | 0.00 | 50 | 1013.3 |
| 20260504030014 | 49 | 264 | 5.2 | 8.7 | 0.00 | 0.00 | 0.00 | 49 | 1013.4 |
| 20260504025510 | 49 | 227 | 5.2 | 8.7 | 0.00 | 0.00 | 0.00 | 49 | 1013.4 |
| 20260504025006 | 49 | 200 | 4.3 | 12.2 | 0.00 | 0.00 | 0.00 | 49 | 1013.4 |
| 20260504024519 | 49 | 188 | 3.5 | 12.2 | 0.00 | 0.00 | 0.00 | 49 | 1013.5 |
| 20260504024008 | 49 | 240 | 5.2 | 11.3 | 0.00 | 0.00 | 0.00 | 49 | 1013.5 |
| 20260504023503 | 49 | 201 | 5.2 | 11.3 | 0.00 | 0.00 | 0.00 | 49 | 1013.5 |
| 20260504023004 | 49 | 243 | 5.2 | 10.4 | 0.00 | 0.00 | 0.00 | 49 | 1013.6 |
| 20260504022503 | 49 | 221 | 5.2 | 11.3 | 0.00 | 0.00 | 0.00 | 49 | 1013.5 |
| 20260504022004 | 49 | 258 | 4.3 | 11.3 | 0.00 | 0.00 | 0.00 | 49 | 1013.6 |
| 20260504021505 | 49 | 274 | 4.3 | 9.6 | 0.00 | 0.00 | 0.00 | 49 | 1013.6 |
| 20260504021003 | 49 | 238 | 4.3 | 11.3 | 0.00 | 0.00 | 0.00 | 48 | 1013.6 |
| 20260504020503 | 49 | 255 | 4.3 | 11.3 | 0.00 | 0.00 | 0.00 | 48 | 1013.6 |
| 20260504020010 | 49 | 247 | 3.5 | 13.0 | 0.00 | 0.00 | 0.00 | 48 | 1013.5 |
| 20260504015507 | 50 | 240 | 4.3 | 13.0 | 0.00 | 0.00 | 0.00 | 48 | 1013.6 |
| 20260504015004 | 50 | 255 | 4.3 | 8.7 | 0.00 | 0.00 | 0.00 | 47 | 1013.6 |
| 20260504014518 | 50 | 238 | 4.3 | 9.6 | 0.00 | 0.00 | 0.00 | 47 | 1013.6 |
| 20260504014007 | 50 | 245 | 5.2 | 9.6 | 0.00 | 0.00 | 0.00 | 47 | 1013.5 |
| 20260504013507 | 50 | 251 | 5.2 | 9.6 | 0.00 | 0.00 | 0.00 | 47 | 1013.4 |
| 20260504013022 | 50 | 263 | 5.2 | 9.6 | 0.00 | 0.00 | 0.00 | 47 | 1013.3 |
| 20260504012507 | 50 | 227 | 4.3 | 11.3 | 0.00 | 0.00 | 0.00 | 47 | 1013.3 |
| 20260504012008 | 50 | 253 | 6.1 | 11.3 | 0.00 | 0.00 | 0.00 | 46 | 1013.3 |
| 20260504011504 | 50 | 297 | 3.5 | 11.3 | 0.00 | 0.00 | 0.00 | 46 | 1013.2 |
| 20260504011003 | 50 | 220 | 5.2 | 11.3 | 0.00 | 0.00 | 0.00 | 46 | 1013.2 |
| 20260504010502 | 51 | 214 | 7.0 | 11.3 | 0.00 | 0.00 | 0.00 | 46 | 1013.3 |
| 20260504010007 | 51 | 225 | 6.1 | 11.3 | 0.00 | 0.00 | 0.00 | 46 | 1013.3 |
| 20260504005504 | 51 | 250 | 3.5 | 10.4 | 0.00 | 0.00 | 0.00 | 46 | 1013.3 |
| 20260504005004 | 51 | 254 | 5.2 | 12.2 | 0.00 | 0.00 | 0.00 | 46 | 1013.2 |
| 20260504004517 | 51 | 241 | 6.1 | 12.2 | 0.00 | 0.00 | 0.00 | 46 | 1013.2 |
| 20260504004004 | 51 | 246 | 5.2 | 10.4 | 0.00 | 0.00 | 0.00 | 46 | 1013.2 |
| 20260504003507 | 51 | 235 | 4.3 | 11.3 | 0.00 | 0.00 | 0.00 | 45 | 1013.2 |
| 20260504003018 | 51 | 197 | 6.1 | 11.3 | 0.00 | 0.00 | 0.00 | 45 | 1013.2 |
| 20260504002506 | 51 | 243 | 5.2 | 11.3 | 0.00 | 0.00 | 0.00 | 45 | 1013.2 |
| 20260504002009 | 52 | 245 | 7.0 | 11.3 | 0.00 | 0.00 | 0.00 | 44 | 1013.3 |
| 20260504001520 | 52 | 253 | 5.2 | 11.3 | 0.00 | 0.00 | 0.00 | 44 | 1013.3 |
| 20260504001007 | 52 | 234 | 7.0 | 13.0 | 0.00 | 0.00 | 0.00 | 44 | 1013.2 |
| 20260504000508 | 52 | 278 | 4.3 | 13.0 | 0.00 | 0.00 | 0.00 | 44 | 1013.1 |
| 20260504000008 | 53 | 213 | 5.2 | 10.4 | 0.00 | 0.00 | 0.00 | 43 | 1013.2 |
| 20260503235503 | 53 | 274 | 5.2 | 13.0 | 0.00 | 0.00 | 0.00 | 43 | 1013.3 |
| 20260503235002 | 53 | 282 | 6.1 | 15.6 | 0.00 | 0.00 | 0.00 | 42 | 1013.3 |
| 20260503234503 | 53 | 244 | 6.1 | 15.6 | 0.00 | 0.00 | 0.00 | 42 | 1013.2 |
| 20260503234001 | 53 | 238 | 8.7 | 13.9 | 0.00 | 0.00 | 0.00 | 41 | 1013.2 |
| 20260503233502 | 53 | 260 | 4.3 | 12.2 | 0.00 | 0.00 | 0.00 | 42 | 1013.2 |
| 20260503233003 | 54 | 247 | 6.1 | 12.2 | 0.00 | 0.00 | 0.00 | 41 | 1013.2 |
| 20260503232503 | 54 | 258 | 7.0 | 12.2 | 0.00 | 0.00 | 0.00 | 41 | 1013.3 |
| 20260503232002 | 54 | 268 | 4.3 | 16.5 | 0.00 | 0.00 | 0.00 | 41 | 1013.2 |
| 20260503231503 | 54 | 274 | 7.0 | 16.5 | 0.00 | 0.00 | 0.00 | 41 | 1013.3 |
| 20260503231004 | 54 | 239 | 6.1 | 16.5 | 0.00 | 0.00 | 0.00 | 40 | 1013.3 |
| 20260503230503 | 54 | 263 | 8.7 | 20.0 | 0.00 | 0.00 | 0.00 | 40 | 1013.2 |
| 20260503230004 | 54 | 264 | 10.4 | 20.0 | 0.00 | 0.00 | 0.00 | 39 | 1013.4 |
| 20260503225504 | 54 | 256 | 8.7 | 16.5 | 0.00 | 0.00 | 0.00 | 39 | 1013.3 |
| 20260503225004 | 54 | 251 | 4.3 | 14.8 | 0.00 | 0.00 | 0.00 | 40 | 1013.2 |
| 20260503224504 | 54 | 240 | 8.7 | 17.4 | 0.00 | 0.00 | 0.00 | 39 | 1013.3 |
| 20260503224003 | 54 | 241 | 9.6 | 20.0 | 0.00 | 0.00 | 0.00 | 39 | 1013.3 |
| 20260503223503 | 54 | 262 | 13.9 | 20.0 | 0.00 | 0.00 | 0.00 | 38 | 1013.2 |
| 20260503223004 | 54 | 255 | 8.7 | 15.6 | 0.00 | 0.00 | 0.00 | 38 | 1013.0 |
| 20260503222503 | 54 | 278 | 8.7 | 16.5 | 0.00 | 0.00 | 0.00 | 39 | 1013.0 |
| 20260503222003 | 54 | 271 | 10.4 | 16.5 | 0.00 | 0.00 | 0.00 | 40 | 1013.0 |
| 20260503221502 | 54 | 274 | 5.2 | 14.8 | 0.00 | 0.00 | 0.00 | 40 | 1013.1 |
| 20260503221002 | 54 | 218 | 8.7 | 14.8 | 0.00 | 0.00 | 0.00 | 39 | 1013.1 |
| 20260503220504 | 54 | 262 | 3.5 | 13.9 | 0.00 | 0.00 | 0.00 | 41 | 1013.1 |
| 20260503220004 | 53 | 281 | 7.8 | 14.8 | 0.00 | 0.00 | 0.00 | 39 | 1013.2 |
| 20260503215504 | 53 | 270 | 6.1 | 16.5 | 0.00 | 0.00 | 0.00 | 40 | 1013.1 |
| 20260503215003 | 54 | 287 | 7.0 | 16.5 | 0.00 | 0.00 | 0.00 | 39 | 1013.0 |
| 20260503214513 | 53 | 272 | 9.6 | 18.2 | 0.00 | 0.00 | 0.00 | 39 | 1013.0 |
| 20260503214006 | 53 | 231 | 10.4 | 18.2 | 0.00 | 0.00 | 0.00 | 39 | 1013.0 |
| 20260503213503 | 53 | 256 | 4.3 | 16.5 | 0.00 | 0.00 | 0.00 | 41 | 1013.0 |
| 20260503213003 | 54 | 259 | 9.6 | 16.5 | 0.00 | 0.00 | 0.00 | 39 | 1013.0 |
| 20260503212503 | 54 | 277 | 6.1 | 15.6 | 0.00 | 0.00 | 0.00 | 40 | 1013.1 |
| 20260503212003 | 53 | 202 | 7.0 | 15.6 | 0.00 | 0.00 | 0.00 | 41 | 1013.2 |
| 20260503211504 | 53 | 291 | 5.2 | 14.8 | 0.00 | 0.00 | 0.00 | 42 | 1013.2 |
| 20260503211002 | 53 | 234 | 8.7 | 14.8 | 0.00 | 0.00 | 0.00 | 40 | 1013.2 |
| 20260503210502 | 53 | 266 | 6.1 | 16.5 | 0.00 | 0.00 | 0.00 | 40 | 1013.3 |
| 20260503210005 | 53 | 275 | 4.3 | 16.5 | 0.00 | 0.00 | 0.00 | 40 | 1013.2 |
| 20260503205504 | 53 | 272 | 10.4 | 16.5 | 0.00 | 0.00 | 0.00 | 39 | 1013.3 |
| 20260503205003 | 53 | 256 | 9.6 | 18.2 | 0.00 | 0.00 | 0.00 | 41 | 1013.2 |
| 20260503204505 | 53 | 281 | 10.4 | 18.2 | 0.00 | 0.00 | 0.00 | 40 | 1013.2 |
| 20260503204003 | 53 | 250 | 7.8 | 16.5 | 0.00 | 0.00 | 0.00 | 40 | 1013.2 |
| 20260503203503 | 53 | 253 | 5.2 | 13.9 | 0.00 | 0.00 | 0.00 | 41 | 1013.2 |
| 20260503203005 | 53 | 302 | 5.2 | 17.4 | 0.00 | 0.00 | 0.00 | 39 | 1013.3 |
| 20260503202503 | 53 | 300 | 7.8 | 17.4 | 0.00 | 0.00 | 0.00 | 39 | 1013.3 |
| 20260503202004 | 53 | 276 | 7.0 | 17.4 | 0.00 | 0.00 | 0.00 | 40 | 1013.4 |
| 20260503201503 | 53 | 242 | 4.3 | 17.4 | 0.00 | 0.00 | 0.00 | 39 | 1013.4 |
| 20260503201007 | 54 | 293 | 9.6 | 15.6 | 0.00 | 0.00 | 0.00 | 39 | 1013.3 |
| 20260503200503 | 53 | 257 | 6.1 | 13.9 | 0.00 | 0.00 | 0.00 | 41 | 1013.5 |
| 20260503200006 | 52 | 280 | 5.2 | 18.2 | 0.00 | 0.00 | 0.00 | 40 | 1013.6 |
| 20260503195502 | 52 | 266 | 9.6 | 18.2 | 0.00 | 0.00 | 0.00 | 40 | 1013.7 |
| 20260503195003 | 52 | 278 | 8.7 | 20.0 | 0.00 | 0.00 | 0.00 | 41 | 1013.8 |
| 20260503194505 | 52 | 256 | 10.4 | 18.2 | 0.00 | 0.00 | 0.00 | 41 | 1013.9 |
| 20260503194003 | 53 | 266 | 7.8 | 16.5 | 0.00 | 0.00 | 0.00 | 41 | 1014.0 |
| 20260503193504 | 53 | 284 | 5.2 | 18.2 | 0.00 | 0.00 | 0.00 | 43 | 1014.1 |
| 20260503193005 | 52 | 290 | 7.0 | 18.2 | 0.00 | 0.00 | 0.00 | 42 | 1014.2 |
| 20260503192504 | 52 | 248 | 8.7 | 16.5 | 0.00 | 0.00 | 0.00 | 43 | 1014.2 |
| 20260503192004 | 52 | 280 | 6.1 | 16.5 | 0.00 | 0.00 | 0.00 | 42 | 1014.2 |
| 20260503191515 | 52 | 257 | 7.8 | 14.8 | 0.00 | 0.00 | 0.00 | 41 | 1014.2 |
| 20260503191004 | 52 | 274 | 6.1 | 14.8 | 0.00 | 0.00 | 0.00 | 40 | 1014.3 |
| 20260503190502 | 52 | 231 | 5.2 | 17.4 | 0.00 | 0.00 | 0.00 | 43 | 1014.3 |
| 20260503190006 | 52 | 275 | 7.0 | 17.4 | 0.00 | 0.00 | 0.00 | 43 | 1014.5 |
| 20260503185502 | 52 | 281 | 10.4 | 17.4 | 0.00 | 0.00 | 0.00 | 41 | 1014.5 |
| 20260503185002 | 53 | 278 | 6.1 | 14.8 | 0.00 | 0.00 | 0.00 | 41 | 1014.6 |
| 20260503184507 | 53 | 280 | 4.3 | 14.8 | 0.00 | 0.00 | 0.00 | 42 | 1014.6 |
| 20260503184002 | 53 | 226 | 6.1 | 17.4 | 0.00 | 0.00 | 0.00 | 44 | 1014.7 |
| 20260503183503 | 51 | 276 | 7.8 | 19.1 | 0.00 | 0.00 | 0.00 | 43 | 1014.7 |
| 20260503183007 | 51 | 279 | 7.0 | 19.1 | 0.00 | 0.00 | 0.00 | 43 | 1014.9 |
| 20260503182503 | 51 | 288 | 5.2 | 13.0 | 0.00 | 0.00 | 0.00 | 43 | 1014.9 |
| 20260503182006 | 51 | 283 | 4.3 | 15.6 | 0.00 | 0.00 | 0.00 | 43 | 1015.0 |
| 20260503181506 | 51 | 266 | 9.6 | 15.6 | 0.00 | 0.00 | 0.00 | 43 | 1014.8 |
| 20260503181004 | 51 | 292 | 7.0 | 15.6 | 0.00 | 0.00 | 0.00 | 42 | 1014.8 |
| 20260503180504 | 51 | 274 | 8.7 | 15.6 | 0.00 | 0.00 | 0.00 | 42 | 1014.9 |
| 20260503180006 | 50 | 303 | 4.3 | 18.2 | 0.00 | 0.00 | 0.00 | 44 | 1014.9 |
| 20260503175503 | 50 | 255 | 7.8 | 18.2 | 0.00 | 0.00 | 0.00 | 42 | 1014.9 |
| 20260503175003 | 51 | 286 | 7.8 | 13.9 | 0.00 | 0.00 | 0.00 | 42 | 1014.9 |
| 20260503174515 | 50 | 287 | 6.1 | 13.0 | 0.00 | 0.00 | 0.00 | 43 | 1014.8 |
| 20260503174002 | 49 | 274 | 8.7 | 13.0 | 0.00 | 0.00 | 0.00 | 43 | 1015.0 |
| 20260503173502 | 49 | 226 | 7.0 | 15.6 | 0.00 | 0.00 | 0.00 | 42 | 1015.1 |
| 20260503173008 | 49 | 255 | 7.0 | 16.5 | 0.00 | 0.00 | 0.00 | 42 | 1015.1 |
| 20260503172504 | 49 | 241 | 9.6 | 16.5 | 0.00 | 0.00 | 0.00 | 44 | 1015.1 |
| 20260503172003 | 48 | 238 | 7.8 | 16.5 | 0.00 | 0.00 | 0.00 | 43 | 1015.3 |
| 20260503171505 | 49 | 257 | 9.6 | 16.5 | 0.00 | 0.00 | 0.00 | 42 | 1015.2 |
| 20260503171006 | 50 | 271 | 6.1 | 13.0 | 0.00 | 0.00 | 0.00 | 43 | 1015.4 |
| 20260503170506 | 50 | 278 | 4.3 | 13.0 | 0.00 | 0.00 | 0.00 | 44 | 1015.2 |
| 20260503151002 | 44 | 274 | 5.2 | 14.8 | 0.00 | 0.00 | 0.00 | 55 | 1015.9 |
| 20260503150507 | 44 | 226 | 8.7 | 13.9 | 0.00 | 0.00 | 0.00 | 53 | 1016.1 |
| 20260503131007 | 38 | 286 | 3.5 | 6.1 | 0.00 | 0.00 | 0.00 | 73 | 1016.4 |
| 20260503130507 | 37 | 268 | 3.5 | 6.1 | 0.00 | 0.00 | 0.00 | 74 | 1016.4 |
| 20260503110503 | 32 | 223 | 2.6 | 4.3 | 0.00 | 0.00 | 0.00 | 80 | 1015.8 |
| 20260503090509 | 32 | 281 | 2.6 | 3.5 | 0.00 | 0.00 | 0.00 | 78 | 1015.2 |
| 20260503081533 | 32 | 279 | 2.6 | 4.3 | 0.00 | 0.00 | 0.00 | 76 | 1015.0 |
| 20260503081007 | 32 | 281 | 2.6 | 4.3 | 0.00 | 0.00 | 0.00 | 76 | 1014.9 |
| 20260503080508 | 32 | 280 | 2.6 | 3.5 | 0.00 | 0.00 | 0.00 | 76 | 1014.9 |
| 20260503072505 | 33 | 278 | 4.3 | 6.1 | 0.00 | 0.00 | 0.00 | 75 | 1014.7 |
| 20260503072011 | 33 | 285 | 3.5 | 5.2 | 0.00 | 0.00 | 0.00 | 75 | 1014.8 |
| 20260503071512 | 33 | 289 | 2.6 | 5.2 | 0.00 | 0.00 | 0.00 | 75 | 1014.8 |
| 20260503071008 | 33 | 285 | 3.5 | 5.2 | 0.00 | 0.00 | 0.00 | 74 | 1014.9 |
| 20260503070507 | 33 | 284 | 2.6 | 5.2 | 0.00 | 0.00 | 0.00 | 74 | 1014.7 |
| 20260503055007 | 35 | 299 | 2.6 | 4.3 | 0.00 | 0.00 | 0.00 | 70 | 1014.8 |
| 20260503054518 | 35 | 309 | 1.7 | 4.3 | 0.00 | 0.00 | 0.00 | 71 | 1014.8 |
| 20260503054007 | 35 | 299 | 1.7 | 5.2 | 0.00 | 0.00 | 0.00 | 70 | 1014.8 |
| 20260503053508 | 35 | 292 | 1.7 | 5.2 | 0.00 | 0.00 | 0.00 | 70 | 1014.9 |
| 20260503053020 | 35 | 295 | 1.7 | 5.2 | 0.00 | 0.00 | 0.00 | 70 | 1014.9 |
| 20260503052508 | 35 | 295 | 0.9 | 5.2 | 0.00 | 0.00 | 0.00 | 69 | 1014.9 |
| 20260503052009 | 35 | 288 | 1.7 | 5.2 | 0.00 | 0.00 | 0.00 | 70 | 1015.0 |
| 20260503051533 | 35 | 288 | 1.7 | 6.1 | 0.00 | 0.00 | 0.00 | 69 | 1014.9 |
| 20260503051008 | 35 | 283 | 1.7 | 6.1 | 0.00 | 0.00 | 0.00 | 69 | 1014.9 |
| 20260503050508 | 35 | 300 | 1.7 | 5.2 | 0.00 | 0.00 | 0.00 | 68 | 1014.9 |
| 20260503050026 | 35 | 295 | 2.6 | 6.1 | 0.00 | 0.00 | 0.00 | 68 | 1014.9 |
| 20260503045506 | 35 | 286 | 1.7 | 7.8 | 0.00 | 0.00 | 0.00 | 68 | 1014.9 |
| 20260503045004 | 35 | 300 | 2.6 | 7.8 | 0.00 | 0.00 | 0.00 | 68 | 1014.9 |
| 20260503044513 | 35 | 304 | 1.7 | 6.1 | 0.00 | 0.00 | 0.00 | 68 | 1014.8 |
| 20260503044006 | 35 | 278 | 2.6 | 6.1 | 0.00 | 0.00 | 0.00 | 68 | 1014.8 |
| 20260503043507 | 35 | 316 | 1.7 | 6.1 | 0.00 | 0.00 | 0.00 | 68 | 1014.7 |
| 20260503043020 | 35 | 287 | 2.6 | 6.1 | 0.00 | 0.00 | 0.00 | 68 | 1014.8 |
| 20260503042507 | 36 | 316 | 1.7 | 6.1 | 0.00 | 0.00 | 0.00 | 68 | 1014.8 |
| 20260503042008 | 36 | 290 | 2.6 | 6.1 | 0.00 | 0.00 | 0.00 | 67 | 1014.9 |
| 20260503041524 | 36 | 290 | 1.7 | 7.8 | 0.00 | 0.00 | 0.00 | 67 | 1014.8 |
| 20260503041010 | 36 | 285 | 2.6 | 7.8 | 0.00 | 0.00 | 0.00 | 67 | 1014.9 |
| 20260503040509 | 36 | 304 | 2.6 | 6.1 | 0.00 | 0.00 | 0.00 | 67 | 1014.9 |
| 20260503040025 | 36 | 292 | 2.6 | 6.1 | 0.00 | 0.00 | 0.00 | 67 | 1015.0 |
| 20260503035507 | 36 | 291 | 1.7 | 7.0 | 0.00 | 0.00 | 0.00 | 66 | 1015.0 |
| 20260503035007 | 36 | 283 | 2.6 | 7.0 | 0.00 | 0.00 | 0.00 | 66 | 1015.0 |
| 20260503034524 | 36 | 313 | 1.7 | 6.1 | 0.00 | 0.00 | 0.00 | 66 | 1015.0 |
| 20260503034011 | 36 | 293 | 2.6 | 5.2 | 0.00 | 0.00 | 0.00 | 65 | 1015.0 |
| 20260503033505 | 36 | 297 | 1.7 | 7.8 | 0.00 | 0.00 | 0.00 | 65 | 1015.0 |
| 20260503033029 | 37 | 304 | 2.6 | 7.8 | 0.00 | 0.00 | 0.00 | 64 | 1015.0 |
| 20260503032506 | 37 | 292 | 2.6 | 7.8 | 0.00 | 0.00 | 0.00 | 65 | 1015.0 |
| 20260503032002 | 37 | 298 | 2.6 | 7.8 | 0.00 | 0.00 | 0.00 | 65 | 1015.1 |
| 20260503031504 | 37 | 283 | 2.6 | 6.1 | 0.00 | 0.00 | 0.00 | 65 | 1015.2 |
| 20260503031003 | 37 | 302 | 2.6 | 7.8 | 0.00 | 0.00 | 0.00 | 65 | 1015.2 |